QPF
0.00 0.00 0.01 0.01 0.02 0.01 0.01 0.01 0.02 0.02 0.03 0.03 0.02 0.03 0.02 0.02 0.02 0.02 0.03 0.05 0.07 0.09 0.09 0.09 0.08 0.07 0.06 0.06 0.06 0.05 0.04 0.03 0.02 0.03 0.20 0.27 0.18 0.08 0.05 0.03 0.03 0.03 0.03
0.01 0.02 0.02 0.01 0.01 0.01 0.01 0.02 0.02 0.03 0.02 0.04 0.04 0.04 0.02 0.02 0.01 0.01 0.01 0.02 0.03 0.05 0.07 0.11 0.10 0.09 0.07 0.06 0.05 0.04 0.04 0.02 0.02 0.03 0.04 0.05 0.05 0.04 0.03 0.02 0.03 0.03 0.02
0.01 0.03 0.02 0.01 0.01 0.01 0.01 0.02 0.02 0.02 0.03 0.04 0.04 0.05 0.04 0.02 0.01 0.01 0.01 0.02 0.02 0.03 0.05 0.08 0.09 0.09 0.07 0.05 0.04 0.04 0.03 0.02 0.02 0.03 0.03 0.03 0.03 0.03 0.03 0.03 0.02 0.02 0.02
0.00 0.01 0.01 0.01 0.01 0.01 0.01 0.02 0.03 0.03 0.04 0.05 0.05 0.04 0.04 0.02 0.02 0.02 0.02 0.02 0.03 0.04 0.05 0.06 0.07 0.06 0.06 0.05 0.05 0.03 0.02 0.02 0.02 0.02 0.02 0.03 0.03 0.03 0.03 0.02 0.02 0.02 0.02
0.00 0.01 0.01 0.01 0.01 0.01 0.02 0.03 0.04 0.03 0.05 0.05 0.04 0.03 0.02 0.01 0.01 0.02 0.02 0.03 0.04 0.05 0.06 0.05 0.05 0.07 0.07 0.06 0.06 0.04 0.03 0.04 0.04 0.04 0.04 0.03 0.03 0.03 0.03 0.02 0.02 0.02 0.02
0.01 0.01 0.01 0.00 0.00 0.01 0.02 0.02 0.03 0.03 0.05 0.04 0.02 0.02 0.02 0.01 0.01 0.02 0.02 0.02 0.03 0.05 0.08 0.05 0.06 0.07 0.06 0.04 0.04 0.04 0.05 0.06 0.06 0.05 0.04 0.04 0.03 0.02 0.02 0.02 0.02 0.02 0.02
0.01 0.00 0.01 0.01 0.01 0.01 0.01 0.01 0.01 0.03 0.04 0.03 0.02 0.02 0.02 0.01 0.01 0.01 0.01 0.01 0.02 0.05 0.08 0.05 0.05 0.05 0.05 0.03 0.04 0.05 0.06 0.07 0.06 0.05 0.03 0.02 0.02 0.02 0.01 0.01 0.02 0.02 0.02
0.01 0.01 0.01 0.01 0.01 0.01 0.01 0.01 0.01 0.02 0.02 0.02 0.02 0.01 0.01 0.01 0.02 0.02 0.01 0.01 0.01 0.01 0.02 0.03 0.02 0.02 0.03 0.03 0.04 0.05 0.05 0.07 0.08 0.05 0.03 0.03 0.02 0.02 0.01 0.01 0.02 0.01 0.01
0.01 0.01 0.01 0.01 0.01 0.01 0.01 0.00 0.01 0.01 0.01 0.01 0.01 0.01 0.01 0.02 0.03 0.03 0.03 0.02 0.01 0.02 0.01 0.01 0.01 0.01 0.01 0.01 0.02 0.03 0.05 0.11 0.08 0.06 0.04 0.06 0.05 0.02 0.02 0.02 0.02 0.02 0.01
0.00 0.00 0.00 0.01 0.01 0.01 0.01 0.01 0.00 0.01 0.01 0.02 0.02 0.02 0.02 0.01 0.02 0.03 0.03 0.03 0.03 0.02 0.01 0.01 0.01 0.01 0.02 0.02 0.02 0.03 0.05 0.08 0.07 0.05 0.05 0.07 0.07 0.04 0.04 0.03 0.04 0.04 0.02
0.00 0.00 0.00 0.00 0.01 0.01 0.00 0.00 0.00 0.01 0.01 0.02 0.02 0.03 0.03 0.01 0.01 0.01 0.02 0.03 0.02 0.01 0.00 0.00 0.01 0.01 0.01 0.02 0.04 0.04 0.05 0.05 0.07 0.04 0.03 0.04 0.05 0.08 0.07 0.07 0.07 0.05 0.04
0.01 0.01 0.01 0.01 0.01 0.01 0.01 0.00 0.01 0.01 0.02 0.02 0.03 0.02 0.02 0.02 0.01 0.01 0.01 0.01 0.01 0.01 0.00 0.00 0.00 0.02 0.02 0.02 0.02 0.03 0.04 0.04 0.05 0.06 0.03 0.03 0.03 0.05 0.06 0.07 0.06 0.06 0.05
0.00 0.01 0.01 0.01 0.01 0.01 0.01 0.01 0.01 0.01 0.01 0.02 0.02 0.01 0.01 0.01 0.01 0.01 0.01 0.01 0.01 0.00 0.00 0.00 0.01 0.02 0.02 0.01 0.01 0.02 0.02 0.04 0.04 0.05 0.05 0.03 0.02 0.04 0.06 0.08 0.09 0.09 0.07
0.01 0.01 0.01 0.01 0.02 0.01 0.02 0.02 0.03 0.02 0.02 0.02 0.02 0.02 0.01 0.01 0.01 0.02 0.01 0.01 0.00 0.01 0.00 0.00 0.00 0.01 0.01 0.01 0.01 0.01 0.02 0.04 0.04 0.03 0.02 0.03 0.03 0.03 0.04 0.05 0.06 0.06 0.05
0.01 0.02 0.02 0.02 0.02 0.01 0.01 0.02 0.03 0.02 0.03 0.03 0.02 0.02 0.01 0.01 0.02 0.02 0.02 0.01 0.01 0.01 0.00 0.00 0.00 0.00 0.00 0.01 0.01 0.01 0.02 0.04 0.02 0.01 0.01 0.01 0.02 0.03 0.03 0.03 0.03 0.04 0.05
0.01 0.01 0.02 0.01 0.01 0.01 0.02 0.02 0.02 0.03 0.03 0.02 0.01 0.01 0.01 0.01 0.01 0.01 0.01 0.01 0.01 0.01 0.01 0.00 0.00 0.00 0.00 0.01 0.02 0.03 0.03 0.03 0.02 0.01 0.01 0.01 0.01 0.02 0.02 0.02 0.02 0.02 0.02
0.01 0.01 0.01 0.01 0.01 0.01 0.01 0.01 0.01 0.02 0.02 0.01 0.01 0.01 0.00 0.01 0.01 0.01 0.01 0.01 0.01 0.01 0.02 0.01 0.00 0.00 0.00 0.01 0.04 0.04 0.02 0.01 0.01 0.01 0.01 0.01 0.01 0.02 0.02 0.02 0.02 0.02 0.02
0.01 0.01 0.01 0.01 0.01 0.01 0.01 0.01 0.01 0.01 0.01 0.01 0.01 0.00 0.00 0.00 0.00 0.01 0.01 0.01 0.01 0.01 0.01 0.00 0.00 0.00 0.00 0.01 0.04 0.03 0.02 0.01 0.01 0.01 0.01 0.02 0.02 0.02 0.01 0.02 0.03 0.03 0.03
0.02 0.01 0.01 0.01 0.01 0.01 0.01 0.01 0.01 0.01 0.01 0.01 0.01 0.01 0.00 0.00 0.00 0.00 0.00 0.00 0.00 0.00 0.00 0.00 0.00 0.00 0.00 0.01 0.03 0.03 0.02 0.01 0.01 0.01 0.01 0.02 0.03 0.02 0.02 0.03 0.03 0.04 0.03
0.02 0.01 0.01 0.01 0.01 0.01 0.01 0.02 0.02 0.01 0.01 0.01 0.02 0.02 0.01 0.01 0.00 0.00 0.00 0.00 0.00 0.00 0.00 0.00 0.00 0.00 0.00 0.00 0.01 0.02 0.02 0.01 0.01 0.01 0.01 0.03 0.03 0.03 0.03 0.03 0.03 0.04 0.03
0.01 0.01 0.01 0.01 0.01 0.01 0.01 0.02 0.02 0.02 0.02 0.02 0.02 0.02 0.01 0.01 0.00 0.00 0.00 0.00 0.00 0.00 0.00 0.00 0.00 0.00 0.00 0.00 0.01 0.01 0.01 0.01 0.01 0.00 0.01 0.02 0.02 0.02 0.03 0.03 0.04 0.05 0.04
0.01 0.01 0.01 0.01 0.01 0.01 0.01 0.01 0.01 0.01 0.02 0.02 0.02 0.02 0.01 0.01 0.00 0.00 0.00 0.00 0.00 0.00 0.00 0.00 0.00 0.00 0.00 0.00 0.01 0.01 0.01 0.01 0.01 0.01 0.00 0.00 0.00 0.01 0.02 0.03 0.05 0.06 0.05
0.00 0.00 0.01 0.01 0.01 0.01 0.01 0.01 0.01 0.01 0.01 0.01 0.01 0.01 0.01 0.00 0.00 0.00 0.00 0.00 0.00 0.00 0.00 0.00 0.00 0.00 0.00 0.00 0.00 0.00 0.01 0.01 0.01 0.01 0.00 0.00 0.00 0.00 0.00 0.01 0.02 0.02 0.02
0.00 0.01 0.00 0.01 0.01 0.01 0.01 0.00 0.01 0.00 0.00 0.00 0.00 0.01 0.00 0.00 0.00 0.00 0.00 0.00 0.00 0.00 0.00 0.00 0.00 0.00 0.00 0.00 0.00 0.01 0.01 0.00 0.00 0.01 0.01 0.00 0.00 0.00 0.00 0.00 0.00 0.00 0.00
0.01 0.01 0.01 0.00 0.01 0.01 0.01 0.01 0.01 0.00 0.00 0.00 0.00 0.00 0.00 0.00 0.00 0.00 0.00 0.00 0.00 0.00 0.00 0.00 0.00 0.00 0.00 0.00 0.00 0.00 0.00 0.00 0.00 0.00 0.00 0.00 0.00 0.00 0.00 0.00 0.00 0.00 0.00
0.01 0.01 0.00 0.00 0.01 0.01 0.01 0.01 0.01 0.01 0.01 0.01 0.01 0.01 0.00 0.00 0.00 0.00 0.00 0.00 0.00 0.00 0.00 0.00 0.00 0.00 0.00 0.00 0.00 0.00 0.00 0.00 0.00 0.00 0.00 0.00 0.00 0.00 0.00 0.00 0.00 0.00 0.00
MSLP
1015.19 1015.13 1015.02 1014.90 1014.84 1014.90 1015.10 1015.45 1015.93 1016.47 1017.02 1017.51 1017.89 1018.15 1018.29 1018.34 1018.33 1018.30 1018.26 1018.21 1018.14 1018.06 1017.97 1017.86 1017.78 1017.76 1017.80 1017.91 1018.06 1018.22 1018.30 1018.26 1018.04 1017.65 1017.13 1016.56 1016.02 1015.59 1015.30 1015.12 1014.92 1014.54 1013.79
1015.51 1015.48 1015.41 1015.32 1015.28 1015.34 1015.54 1015.89 1016.35 1016.89 1017.44 1017.95 1018.37 1018.68 1018.88 1018.99 1019.02 1019.01 1018.97 1018.89 1018.80 1018.68 1018.54 1018.41 1018.30 1018.26 1018.30 1018.41 1018.55 1018.69 1018.74 1018.66 1018.41 1017.99 1017.46 1016.89 1016.37 1015.96 1015.69 1015.51 1015.28 1014.83 1013.96
1015.69 1015.71 1015.70 1015.68 1015.70 1015.81 1016.04 1016.39 1016.85 1017.38 1017.93 1018.45 1018.90 1019.26 1019.51 1019.68 1019.77 1019.78 1019.75 1019.67 1019.54 1019.37 1019.19 1019.01 1018.87 1018.80 1018.81 1018.89 1019.01 1019.12 1019.15 1019.04 1018.76 1018.33 1017.78 1017.21 1016.70 1016.31 1016.05 1015.86 1015.62 1015.14 1014.23
1015.75 1015.83 1015.90 1015.97 1016.09 1016.27 1016.55 1016.93 1017.39 1017.92 1018.46 1018.98 1019.45 1019.85 1020.15 1020.38 1020.52 1020.58 1020.57 1020.49 1020.34 1020.14 1019.90 1019.68 1019.49 1019.37 1019.33 1019.38 1019.46 1019.54 1019.54 1019.42 1019.12 1018.68 1018.14 1017.57 1017.05 1016.65 1016.38 1016.19 1015.95 1015.49 1014.62
1015.76 1015.89 1016.04 1016.21 1016.43 1016.71 1017.05 1017.47 1017.94 1018.46 1018.99 1019.51 1019.99 1020.41 1020.76 1021.04 1021.23 1021.35 1021.37 1021.31 1021.16 1020.94 1020.68 1020.41 1020.17 1020.00 1019.92 1019.91 1019.96 1020.01 1019.98 1019.84 1019.54 1019.10 1018.56 1017.98 1017.45 1017.03 1016.73 1016.52 1016.29 1015.87 1015.12
1015.78 1015.94 1016.15 1016.42 1016.73 1017.09 1017.51 1017.96 1018.45 1018.96 1019.48 1019.98 1020.46 1020.89 1021.28 1021.61 1021.88 1022.05 1022.14 1022.12 1022.00 1021.78 1021.51 1021.21 1020.94 1020.72 1020.59 1020.53 1020.53 1020.54 1020.49 1020.34 1020.05 1019.61 1019.07 1018.49 1017.94 1017.48 1017.14 1016.90 1016.66 1016.31 1015.70
1015.86 1016.03 1016.29 1016.61 1017.00 1017.43 1017.89 1018.38 1018.88 1019.37 1019.87 1020.35 1020.82 1021.27 1021.69 1022.08 1022.41 1022.66 1022.82 1022.87 1022.81 1022.63 1022.38 1022.08 1021.78 1021.53 1021.35 1021.24 1021.19 1021.16 1021.09 1020.92 1020.63 1020.21 1019.69 1019.10 1018.53 1018.04 1017.65 1017.35 1017.10 1016.79 1016.32
1016.05 1016.20 1016.46 1016.82 1017.24 1017.71 1018.20 1018.70 1019.19 1019.66 1020.13 1020.59 1021.05 1021.51 1021.96 1022.40 1022.80 1023.14 1023.39 1023.53 1023.55 1023.45 1023.25 1022.98 1022.68 1022.41 1022.18 1022.02 1021.92 1021.84 1021.73 1021.56 1021.28 1020.88 1020.38 1019.81 1019.24 1018.70 1018.26 1017.90 1017.61 1017.33 1016.95
1016.33 1016.45 1016.70 1017.04 1017.47 1017.93 1018.42 1018.90 1019.37 1019.81 1020.25 1020.68 1021.12 1021.58 1022.06 1022.55 1023.02 1023.45 1023.81 1024.07 1024.19 1024.19 1024.06 1023.85 1023.58 1023.30 1023.04 1022.83 1022.67 1022.54 1022.40 1022.21 1021.95 1021.58 1021.11 1020.58 1020.01 1019.47 1018.98 1018.56 1018.22 1017.91 1017.59
1016.67 1016.75 1016.96 1017.27 1017.66 1018.10 1018.55 1018.99 1019.42 1019.82 1020.22 1020.62 1021.04 1021.50 1022.00 1022.53 1023.07 1023.59 1024.05 1024.42 1024.67 1024.79 1024.76 1024.62 1024.40 1024.13 1023.86 1023.60 1023.39 1023.20 1023.02 1022.82 1022.57 1022.24 1021.84 1021.36 1020.83 1020.30 1019.79 1019.33 1018.93 1018.57 1018.24
1017.02 1017.07 1017.23 1017.49 1017.82 1018.20 1018.60 1018.99 1019.37 1019.72 1020.07 1020.44 1020.84 1021.29 1021.80 1022.36 1022.95 1023.55 1024.10 1024.59 1024.96 1025.20 1025.29 1025.24 1025.09 1024.85 1024.57 1024.29 1024.03 1023.79 1023.57 1023.36 1023.12 1022.84 1022.50 1022.10 1021.65 1021.16 1020.66 1020.18 1019.73 1019.32 1018.93
1017.32 1017.34 1017.45 1017.66 1017.93 1018.25 1018.58 1018.91 1019.23 1019.54 1019.85 1020.18 1020.56 1020.99 1021.50 1022.07 1022.69 1023.34 1023.97 1024.56 1025.04 1025.40 1025.61 1025.67 1025.60 1025.42 1025.16 1024.87 1024.57 1024.30 1024.05 1023.82 1023.60 1023.37 1023.11 1022.80 1022.43 1022.02 1021.57 1021.10 1020.62 1020.16 1019.72
1017.54 1017.54 1017.62 1017.78 1017.99 1018.24 1018.52 1018.79 1019.06 1019.32 1019.60 1019.90 1020.25 1020.66 1021.15 1021.71 1022.34 1023.02 1023.70 1024.35 1024.93 1025.40 1025.73 1025.90 1025.93 1025.82 1025.62 1025.34 1025.05 1024.75 1024.48 1024.24 1024.04 1023.85 1023.66 1023.44 1023.17 1022.85 1022.48 1022.05 1021.58 1021.09 1020.60
1017.66 1017.66 1017.72 1017.84 1018.00 1018.21 1018.43 1018.65 1018.89 1019.12 1019.37 1019.64 1019.97 1020.35 1020.81 1021.35 1021.97 1022.64 1023.34 1024.03 1024.67 1025.23 1025.67 1025.96 1026.10 1026.10 1025.97 1025.75 1025.47 1025.18 1024.91 1024.67 1024.48 1024.33 1024.19 1024.05 1023.88 1023.65 1023.36 1022.99 1022.56 1022.08 1021.57
1017.70 1017.71 1017.76 1017.85 1017.99 1018.16 1018.35 1018.54 1018.75 1018.97 1019.20 1019.46 1019.77 1020.12 1020.55 1021.05 1021.63 1022.27 1022.95 1023.65 1024.34 1024.96 1025.49 1025.90 1026.16 1026.27 1026.24 1026.10 1025.89 1025.64 1025.38 1025.15 1024.97 1024.84 1024.74 1024.66 1024.55 1024.41 1024.19 1023.90 1023.52 1023.08 1022.59
1017.71 1017.72 1017.77 1017.86 1017.98 1018.13 1018.30 1018.49 1018.69 1018.90 1019.13 1019.39 1019.68 1020.01 1020.40 1020.85 1021.37 1021.96 1022.61 1023.29 1023.98 1024.65 1025.25 1025.75 1026.13 1026.37 1026.46 1026.44 1026.31 1026.12 1025.91 1025.71 1025.54 1025.42 1025.34 1025.28 1025.21 1025.11 1024.96 1024.73 1024.41 1024.03 1023.58
1017.72 1017.74 1017.80 1017.88 1018.00 1018.14 1018.31 1018.50 1018.70 1018.93 1019.17 1019.43 1019.71 1020.02 1020.38 1020.78 1021.24 1021.77 1022.35 1022.99 1023.65 1024.33 1024.97 1025.55 1026.03 1026.39 1026.62 1026.72 1026.71 1026.61 1026.47 1026.31 1026.16 1026.05 1025.96 1025.90 1025.84 1025.76 1025.64 1025.45 1025.19 1024.86 1024.48
1017.77 1017.80 1017.86 1017.95 1018.07 1018.21 1018.38 1018.58 1018.79 1019.03 1019.28 1019.55 1019.83 1020.13 1020.46 1020.82 1021.21 1021.67 1022.18 1022.75 1023.37 1024.03 1024.68 1025.31 1025.87 1026.33 1026.69 1026.91 1027.03 1027.04 1026.98 1026.88 1026.76 1026.66 1026.57 1026.49 1026.42 1026.34 1026.22 1026.05 1025.82 1025.55 1025.22
1017.87 1017.91 1017.97 1018.07 1018.19 1018.33 1018.51 1018.71 1018.93 1019.18 1019.44 1019.72 1020.00 1020.30 1020.60 1020.92 1021.26 1021.65 1022.08 1022.58 1023.13 1023.74 1024.37 1025.01 1025.61 1026.15 1026.60 1026.95 1027.18 1027.30 1027.34 1027.32 1027.26 1027.18 1027.09 1027.01 1026.92 1026.82 1026.69 1026.53 1026.32 1026.08 1025.80
1018.01 1018.06 1018.14 1018.23 1018.35 1018.50 1018.67 1018.86 1019.08 1019.33 1019.60 1019.88 1020.17 1020.45 1020.74 1021.03 1021.33 1021.66 1022.02 1022.44 1022.91 1023.45 1024.03 1024.64 1025.25 1025.82 1026.34 1026.77 1027.10 1027.34 1027.48 1027.55 1027.55 1027.52 1027.46 1027.39 1027.30 1027.19 1027.05 1026.89 1026.69 1026.46 1026.22
1018.17 1018.24 1018.32 1018.42 1018.54 1018.68 1018.84 1019.02 1019.23 1019.46 1019.72 1020.00 1020.28 1020.57 1020.85 1021.12 1021.39 1021.66 1021.97 1022.31 1022.70 1023.15 1023.66 1024.21 1024.78 1025.35 1025.89 1026.37 1026.78 1027.11 1027.34 1027.51 1027.60 1027.64 1027.63 1027.60 1027.53 1027.43 1027.30 1027.15 1026.96 1026.75 1026.53
1018.31 1018.40 1018.51 1018.62 1018.74 1018.86 1019.00 1019.16 1019.34 1019.55 1019.79 1020.05 1020.33 1020.61 1020.89 1021.15 1021.40 1021.65 1021.90 1022.18 1022.50 1022.87 1023.29 1023.76 1024.26 1024.79 1025.31 1025.81 1026.25 1026.64 1026.96 1027.21 1027.39 1027.51 1027.59 1027.61 1027.60 1027.55 1027.45 1027.32 1027.16 1026.97 1026.77
1018.40 1018.53 1018.66 1018.78 1018.90 1019.02 1019.13 1019.26 1019.41 1019.59 1019.80 1020.05 1020.31 1020.59 1020.87 1021.13 1021.38 1021.62 1021.85 1022.08 1022.33 1022.62 1022.96 1023.34 1023.76 1024.22 1024.69 1025.16 1025.61 1026.02 1026.40 1026.72 1026.98 1027.19 1027.36 1027.47 1027.53 1027.54 1027.50 1027.42 1027.30 1027.15 1026.97
1018.40 1018.58 1018.74 1018.89 1019.02 1019.13 1019.22 1019.33 1019.45 1019.60 1019.78 1020.01 1020.26 1020.54 1020.82 1021.09 1021.35 1021.59 1021.81 1022.02 1022.24 1022.47 1022.73 1023.03 1023.37 1023.75 1024.15 1024.57 1024.99 1025.40 1025.79 1026.15 1026.48 1026.76 1027.00 1027.20 1027.34 1027.43 1027.47 1027.45 1027.39 1027.28 1027.14
1018.31 1018.53 1018.74 1018.91 1019.06 1019.17 1019.26 1019.35 1019.45 1019.58 1019.75 1019.96 1020.21 1020.48 1020.77 1021.07 1021.34 1021.60 1021.83 1022.04 1022.25 1022.45 1022.66 1022.90 1023.17 1023.47 1023.80 1024.15 1024.52 1024.90 1025.27 1025.64 1025.99 1026.32 1026.61 1026.87 1027.09 1027.25 1027.36 1027.41 1027.40 1027.35 1027.26
1018.10 1018.37 1018.62 1018.82 1018.99 1019.12 1019.23 1019.32 1019.43 1019.55 1019.72 1019.92 1020.17 1020.45 1020.76 1021.07 1021.37 1021.65 1021.91 1022.14 1022.35 1022.55 1022.75 1022.95 1023.17 1023.42 1023.68 1023.97 1024.28 1024.60 1024.94 1025.28 1025.62 1025.95 1026.26 1026.55 1026.80 1027.01 1027.17 1027.27 1027.33 1027.33 1027.29
Thickness
5712 5711 5710 5709 5709 5708 5708 5707 5707 5706 5706 5705 5705 5704 5704 5704 5705 5705 5707 5709 5710 5712 5714 5715 5717 5718 5719 5720 5720 5721 5721 5722 5724 5725 5726 5728 5729 5730 5732 5733 5735 5737 5738
5710 5709 5708 5707 5706 5706 5705 5704 5703 5703 5702 5701 5701 5700 5700 5700 5700 5701 5702 5704 5706 5707 5709 5711 5712 5713 5714 5715 5716 5717 5717 5718 5719 5721 5722 5723 5724 5726 5727 5729 5731 5733 5734
5708 5707 5705 5704 5704 5703 5702 5701 5700 5700 5699 5698 5696 5696 5695 5696 5696 5697 5698 5699 5700 5702 5703 5705 5707 5708 5709 5711 5712 5712 5713 5714 5715 5717 5718 5719 5720 5721 5723 5725 5727 5728 5730
5707 5705 5704 5702 5701 5700 5699 5698 5697 5695 5694 5693 5692 5691 5691 5691 5692 5692 5693 5694 5695 5696 5698 5699 5701 5703 5704 5705 5707 5708 5709 5710 5711 5712 5714 5714 5716 5717 5719 5720 5722 5724 5725
5705 5704 5702 5701 5699 5698 5697 5696 5694 5693 5690 5689 5688 5687 5687 5687 5688 5688 5689 5689 5690 5691 5693 5694 5695 5697 5698 5700 5702 5703 5705 5706 5707 5708 5709 5711 5712 5713 5714 5716 5717 5719 5720
5703 5702 5700 5699 5698 5696 5694 5693 5691 5690 5688 5687 5687 5684 5682 5683 5684 5684 5685 5685 5686 5687 5688 5689 5690 5691 5692 5695 5697 5698 5700 5702 5703 5704 5706 5707 5708 5709 5710 5712 5713 5714 5715
5701 5700 5698 5697 5696 5694 5692 5691 5689 5686 5684 5685 5682 5679 5679 5680 5680 5680 5681 5682 5683 5683 5684 5685 5685 5686 5687 5689 5691 5693 5695 5697 5699 5700 5702 5703 5704 5705 5706 5707 5708 5709 5710
5700 5698 5697 5696 5694 5692 5690 5689 5688 5685 5683 5683 5681 5676 5673 5673 5675 5677 5677 5678 5678 5679 5680 5680 5681 5682 5682 5684 5686 5688 5690 5693 5695 5696 5697 5699 5700 5702 5703 5704 5704 5704 5705
5698 5697 5696 5695 5693 5692 5690 5688 5687 5685 5682 5681 5681 5678 5673 5669 5669 5672 5673 5674 5674 5675 5675 5676 5677 5678 5679 5680 5682 5683 5686 5688 5690 5692 5694 5695 5696 5697 5699 5699 5700 5699 5700
5697 5696 5695 5694 5693 5692 5690 5689 5688 5686 5684 5681 5679 5679 5678 5675 5670 5666 5668 5670 5671 5671 5672 5673 5673 5674 5675 5676 5677 5679 5681 5683 5685 5687 5688 5689 5691 5692 5694 5694 5694 5694 5694
5695 5695 5694 5693 5692 5691 5690 5689 5687 5686 5684 5682 5679 5677 5675 5674 5672 5668 5663 5664 5666 5667 5668 5669 5670 5671 5671 5672 5674 5675 5677 5678 5680 5682 5683 5684 5686 5687 5688 5689 5689 5688 5689
5693 5693 5693 5692 5691 5690 5689 5688 5687 5686 5684 5683 5680 5679 5677 5674 5671 5668 5663 5661 5661 5663 5664 5666 5666 5667 5668 5668 5669 5671 5672 5674 5675 5676 5677 5679 5680 5681 5682 5683 5683 5683 5682
5691 5692 5692 5691 5690 5690 5689 5688 5687 5685 5684 5682 5680 5679 5678 5676 5674 5670 5665 5661 5659 5659 5661 5662 5663 5663 5664 5664 5665 5666 5668 5669 5670 5671 5672 5673 5674 5675 5676 5676 5676 5677 5676
5691 5692 5691 5690 5690 5689 5688 5687 5686 5684 5683 5681 5680 5678 5677 5676 5675 5672 5668 5663 5658 5657 5657 5658 5659 5660 5661 5661 5661 5662 5664 5664 5665 5666 5667 5668 5668 5669 5669 5669 5670 5670 5670
5691 5691 5690 5689 5688 5687 5686 5685 5684 5682 5681 5679 5678 5677 5676 5675 5674 5672 5670 5667 5662 5656 5654 5654 5656 5658 5658 5658 5658 5659 5659 5660 5661 5662 5663 5663 5663 5663 5663 5663 5663 5663 5663
5690 5689 5688 5687 5686 5685 5685 5683 5682 5681 5679 5678 5676 5676 5674 5673 5672 5670 5669 5666 5664 5659 5653 5653 5653 5654 5655 5655 5655 5655 5655 5656 5657 5657 5658 5658 5658 5657 5657 5657 5656 5656 5656
5688 5687 5687 5686 5685 5684 5683 5682 5680 5679 5677 5676 5675 5673 5672 5671 5670 5668 5666 5664 5662 5659 5654 5651 5651 5652 5652 5652 5652 5652 5652 5652 5652 5653 5653 5653 5652 5652 5651 5651 5651 5650 5650
5687 5686 5685 5684 5683 5682 5681 5680 5679 5677 5675 5674 5673 5671 5670 5670 5667 5666 5664 5662 5660 5658 5655 5650 5649 5649 5649 5649 5648 5648 5648 5648 5648 5648 5648 5647 5647 5646 5646 5645 5644 5644 5643
5685 5685 5684 5683 5682 5681 5680 5678 5677 5675 5674 5673 5672 5670 5669 5668 5665 5664 5662 5660 5658 5657 5654 5650 5647 5645 5645 5645 5644 5644 5644 5643 5643 5643 5643 5642 5642 5641 5641 5640 5639 5638 5637
5683 5682 5682 5681 5680 5679 5678 5677 5675 5673 5672 5671 5670 5669 5668 5666 5664 5662 5660 5658 5656 5653 5650 5647 5644 5642 5640 5640 5639 5638 5637 5637 5637 5638 5637 5637 5636 5636 5635 5635 5634 5633 5632
5682 5681 5680 5679 5678 5677 5676 5675 5673 5671 5670 5669 5668 5667 5667 5666 5664 5662 5660 5656 5654 5650 5647 5644 5641 5638 5636 5635 5634 5633 5632 5631 5632 5631 5631 5631 5630 5630 5629 5629 5628 5627 5626
5679 5678 5677 5676 5675 5675 5675 5674 5672 5670 5668 5667 5665 5665 5664 5663 5662 5661 5659 5656 5653 5649 5645 5641 5638 5635 5634 5632 5631 5630 5627 5626 5626 5626 5625 5624 5624 5623 5623 5622 5621 5620 5618
5676 5675 5674 5673 5673 5673 5673 5672 5671 5668 5666 5664 5663 5662 5662 5661 5659 5657 5655 5653 5650 5648 5646 5642 5637 5635 5633 5631 5628 5626 5624 5622 5620 5620 5618 5617 5616 5615 5616 5614 5613 5612 5610
5673 5672 5671 5671 5670 5670 5670 5669 5668 5665 5663 5661 5660 5659 5658 5657 5656 5654 5651 5648 5645 5643 5642 5640 5638 5635 5633 5631 5628 5625 5622 5618 5616 5614 5612 5610 5609 5608 5608 5607 5606 5604 5602
5670 5669 5669 5668 5667 5668 5668 5667 5665 5662 5659 5658 5657 5656 5655 5653 5653 5650 5647 5643 5641 5639 5638 5636 5634 5632 5629 5627 5624 5620 5615 5613 5611 5609 5606 5603 5602 5601 5600 5599 5598 5596 5594
5668 5667 5666 5666 5666 5666 5666 5664 5662 5659 5656 5654 5653 5652 5652 5650 5649 5646 5643 5640 5637 5635 5633 5631 5629 5627 5624 5622 5619 5615 5612 5607 5604 5602 5599 5597 5595 5593 5592 5591 5588 5587 5584